"read_dt","SO2 (ppb)","flags","PMT voltage (V)","lamp voltage (V)","lamp intensity (Hz)","internal temp (C)","react chamber temp (C)","sample flow (l/min)","pres (mmHg)","SO2 bkg (ppb)","SO2 coefficient"
2015-11-16 00:00:00,1731E-3,5C000400,-0724,0829,12116,025.7,045.4,0.261,770.1,01.15,0.508
2015-11-16 00:01:00,1738E-3,5C000400,-0724,0829,12316,025.7,045.4,0.260,770.1,01.15,0.508
2015-11-16 00:02:00,1846E-3,5C000400,-0724,0828,12385,025.7,045.4,0.260,770.1,01.15,0.508
2015-11-16 00:03:00,1936E-3,5C000400,-0724,0829,12231,025.7,045.4,0.261,770.1,01.15,0.508
2015-11-16 00:04:00,1860E-3,5C000400,-0724,0829,12221,025.7,045.3,0.261,770.0,01.15,0.508
2015-11-16 00:05:00,1707E-3,5C000400,-0724,0829,12119,025.7,045.4,0.261,770.0,01.15,0.508
2015-11-16 00:06:00,1819E-3,5C000400,-0724,0829,12098,025.7,045.4,0.260,770.1,01.15,0.508
2015-11-16 00:07:00,1816E-3,5C000400,-0724,0829,12261,025.7,045.3,0.260,770.1,01.15,0.508
2015-11-16 00:08:00,1737E-3,5C000400,-0724,0829,11999,025.7,045.3,0.261,770.1,01.15,0.508
2015-11-16 00:09:00,1788E-3,5C000400,-0724,0830,12301,025.8,045.3,0.261,770.1,01.15,0.508
2015-11-16 00:10:00,1747E-3,5C000400,-0724,0829,12199,025.7,045.4,0.261,770.1,01.15,0.508
2015-11-16 00:11:00,1972E-3,5C000400,-0724,0830,12345,025.7,045.4,0.261,770.1,01.15,0.508
2015-11-16 00:12:00,1791E-3,5C000400,-0724,0829,12118,025.7,045.4,0.260,770.1,01.15,0.508
2015-11-16 00:13:00,1846E-3,5C000400,-0724,0830,12145,025.7,045.4,0.260,770.1,01.15,0.508
2015-11-16 00:14:00,1814E-3,5C000400,-0724,0829,12186,025.7,045.4,0.260,770.1,01.15,0.508
2015-11-16 00:15:00,1914E-3,5C000400,-0724,0830,12230,025.7,045.4,0.261,770.1,01.15,0.508
2015-11-16 00:16:00,1805E-3,5C000400,-0724,0830,12213,025.7,045.3,0.261,770.1,01.15,0.508
2015-11-16 00:17:00,1734E-3,5C000400,-0724,0829,12080,025.7,045.4,0.260,770.1,01.15,0.508
2015-11-16 00:18:00,1796E-3,5C000400,-0724,0829,12181,025.8,045.4,0.260,770.1,01.15,0.508
2015-11-16 00:19:00,1626E-3,5C000400,-0724,0829,12202,025.8,045.3,0.260,770.1,01.15,0.508
2015-11-16 00:20:00,1734E-3,5C000400,-0724,0829,12269,025.8,045.4,0.261,770.1,01.15,0.508
2015-11-16 00:21:00,1800E-3,5C000400,-0724,0829,12219,025.7,045.4,0.261,770.1,01.15,0.508
2015-11-16 00:22:00,1793E-3,5C000400,-0724,0830,12267,025.8,045.4,0.261,770.1,01.15,0.508
2015-11-16 00:23:00,1846E-3,5C000400,-0724,0829,12134,025.8,045.4,0.261,770.1,01.15,0.508
2015-11-16 00:24:00,1720E-3,5C000400,-0724,0829,12203,025.8,045.4,0.260,770.1,01.15,0.508
2015-11-16 00:25:00,1751E-3,5C000400,-0724,0829,12214,025.8,045.4,0.260,770.0,01.15,0.508
2015-11-16 00:26:00,1719E-3,5C000400,-0724,0829,12126,025.8,045.4,0.260,770.1,01.15,0.508
2015-11-16 00:27:00,1872E-3,5C000400,-0724,0830,12297,025.8,045.4,0.261,770.1,01.15,0.508
2015-11-16 00:28:00,1831E-3,5C000400,-0724,0830,12290,025.8,045.3,0.261,770.1,01.15,0.508
2015-11-16 00:29:00,1901E-3,5C000400,-0724,0829,12106,025.8,045.4,0.260,770.1,01.15,0.508
2015-11-16 00:30:00,1704E-3,5C000400,-0724,0829,12214,025.8,045.4,0.260,770.1,01.15,0.508
2015-11-16 00:31:00,1805E-3,5C000400,-0724,0829,12131,025.8,045.4,0.260,770.1,01.15,0.508
2015-11-16 00:32:00,1743E-3,5C000400,-0724,0829,12160,025.8,045.4,0.260,770.1,01.15,0.508
2015-11-16 00:33:00,1662E-3,5C000400,-0724,0830,12084,025.8,045.4,0.261,770.1,01.15,0.508
2015-11-16 00:34:00,1749E-3,5C000400,-0724,0829,12304,025.8,045.4,0.261,770.1,01.15,0.508
2015-11-16 00:35:00,1754E-3,5C000400,-0724,0829,12096,025.8,045.4,0.261,770.1,01.15,0.508
2015-11-16 00:36:00,1817E-3,5C000400,-0724,0829,12186,025.8,045.4,0.260,770.1,01.15,0.508
2015-11-16 00:37:00,1808E-3,5C000400,-0724,0830,12193,025.8,045.4,0.260,770.1,01.15,0.508
2015-11-16 00:38:00,1725E-3,5C000400,-0724,0829,12249,025.8,045.4,0.260,770.1,01.15,0.508
2015-11-16 00:39:00,1891E-3,5C000400,-0724,0829,12117,025.8,045.4,0.260,770.1,01.15,0.508
2015-11-16 00:40:00,1812E-3,5C000400,-0724,0828,12205,025.8,045.4,0.261,770.1,01.15,0.508
2015-11-16 00:41:00,1746E-3,5C000400,-0724,0829,12126,025.8,045.3,0.261,770.1,01.15,0.508
2015-11-16 00:42:00,1719E-3,5C000400,-0724,0830,12365,025.8,045.4,0.260,770.1,01.15,0.508
2015-11-16 00:43:00,1755E-3,5C000400,-0724,0829,12096,025.8,045.4,0.260,770.1,01.15,0.508
2015-11-16 00:44:00,1666E-3,5C000400,-0724,0828,12227,025.8,045.4,0.260,770.1,01.15,0.508
2015-11-16 00:45:00,1777E-3,5C000400,-0724,0829,12144,025.8,045.4,0.260,770.1,01.15,0.508
2015-11-16 00:46:00,1768E-3,5C000400,-0724,0829,12324,025.8,045.4,0.261,770.1,01.15,0.508
2015-11-16 00:47:00,1709E-3,5C000400,-0724,0829,12280,025.8,045.4,0.261,770.1,01.15,0.508
2015-11-16 00:48:00,1765E-3,5C000400,-0724,0829,12074,025.8,045.4,0.260,770.1,01.15,0.508
2015-11-16 00:49:00,1681E-3,5C000400,-0724,0829,12272,025.8,045.4,0.260,770.1,01.15,0.508
2015-11-16 00:50:00,1726E-3,5C000400,-0724,0829,12191,025.8,045.4,0.260,770.0,01.15,0.508
2015-11-16 00:51:00,1787E-3,5C000400,-0724,0829,12127,025.8,045.4,0.260,769.9,01.15,0.508
2015-11-16 00:52:00,1671E-3,5C000400,-0724,0828,12201,025.8,045.4,0.261,769.8,01.15,0.508
2015-11-16 00:53:00,1829E-3,5C000400,-0724,0829,12295,025.8,045.4,0.260,769.9,01.15,0.508
2015-11-16 00:54:00,1715E-3,5C000400,-0724,0828,12299,025.8,045.4,0.260,769.9,01.15,0.508
2015-11-16 00:55:00,1924E-3,5C000400,-0724,0829,12273,025.8,045.4,0.260,770.0,01.15,0.508
2015-11-16 00:56:00,1798E-3,5C000400,-0724,0829,12326,025.8,045.4,0.260,769.9,01.15,0.508
2015-11-16 00:57:00,1778E-3,5C000400,-0724,0829,12215,025.8,045.3,0.260,769.9,01.15,0.508
2015-11-16 00:58:00,1699E-3,5C000400,-0724,0829,12095,025.8,045.4,0.261,769.9,01.15,0.508
2015-11-16 00:59:00,1720E-3,5C000400,-0724,0829,12428,025.8,045.4,0.260,770.0,01.15,0.508
2015-11-16 01:00:00,1803E-3,5C000400,-0724,0828,12336,025.8,045.4,0.260,770.0,01.15,0.508
2015-11-16 01:01:00,1828E-3,5C000400,-0724,0829,12243,025.8,045.4,0.260,770.1,01.15,0.508
2015-11-16 01:02:00,1848E-3,5C000400,-0724,0829,12249,025.8,045.4,0.260,770.1,01.15,0.508
2015-11-16 01:03:00,1817E-3,5C000400,-0724,0829,12251,025.8,045.4,0.260,770.1,01.15,0.508
2015-11-16 01:04:00,1765E-3,5C000400,-0724,0829,12354,025.8,045.4,0.261,770.1,01.15,0.508
2015-11-16 01:05:00,1896E-3,5C000400,-0724,0829,12342,025.8,045.4,0.261,770.0,01.15,0.508
2015-11-16 01:06:00,1705E-3,5C000400,-0724,0830,12285,025.8,045.4,0.260,770.0,01.15,0.508
2015-11-16 01:07:00,1818E-3,5C000400,-0724,0829,12314,025.8,045.4,0.260,770.1,01.15,0.508
2015-11-16 01:08:00,1778E-3,5C000400,-0724,0829,12263,025.9,045.4,0.260,770.1,01.15,0.508
2015-11-16 01:09:00,1759E-3,5C000400,-0724,0830,12300,025.9,045.4,0.261,770.0,01.15,0.508
2015-11-16 01:10:00,1840E-3,5C000400,-0724,0829,12299,025.9,045.4,0.260,770.0,01.15,0.508
2015-11-16 01:11:00,1848E-3,5C000400,-0724,0829,12186,025.9,045.4,0.260,770.0,01.15,0.508
2015-11-16 01:12:00,1861E-3,5C000400,-0724,0829,12257,025.8,045.4,0.260,770.0,01.15,0.508
2015-11-16 01:13:00,1804E-3,5C000400,-0724,0828,12314,025.9,045.4,0.260,770.0,01.15,0.508
2015-11-16 01:14:00,1775E-3,5C000400,-0724,0828,12207,025.9,045.4,0.260,769.9,01.15,0.508
2015-11-16 01:15:00,1747E-3,5C000400,-0724,0827,12283,025.9,045.4,0.261,770.1,01.15,0.508
2015-11-16 01:16:00,1802E-3,5C000400,-0724,0828,12260,025.9,045.4,0.260,770.0,01.15,0.508
2015-11-16 01:17:00,1748E-3,5C000400,-0724,0828,12232,025.9,045.4,0.260,770.0,01.15,0.508
2015-11-16 01:18:00,1751E-3,5C000400,-0724,0828,12127,025.9,045.4,0.260,770.1,01.15,0.508
2015-11-16 01:19:00,1785E-3,5C000400,-0724,0828,12165,025.9,045.4,0.260,770.0,01.15,0.508
2015-11-16 01:20:00,1763E-3,5C000400,-0724,0828,12320,025.9,045.4,0.260,770.1,01.15,0.508
2015-11-16 01:21:00,1773E-3,5C000400,-0724,0829,12182,025.9,045.4,0.261,770.0,01.15,0.508
2015-11-16 01:22:00,1726E-3,5C000400,-0724,0828,12152,025.9,045.3,0.260,770.0,01.15,0.508
2015-11-16 01:23:00,1747E-3,5C000400,-0724,0828,12238,025.9,045.4,0.260,770.1,01.15,0.508
2015-11-16 01:24:00,1804E-3,5C000400,-0724,0828,12335,025.9,045.4,0.260,770.0,01.15,0.508
2015-11-16 01:25:00,1757E-3,5C000400,-0724,0828,12119,025.9,045.4,0.260,770.1,01.15,0.508
2015-11-16 01:26:00,1899E-3,5C000400,-0724,0829,12037,025.9,045.4,0.260,770.1,01.15,0.508
2015-11-16 01:27:00,1875E-3,5C000400,-0724,0828,12187,025.9,045.4,0.260,770.1,01.15,0.508
2015-11-16 01:28:00,1821E-3,5C000400,-0724,0828,12230,025.9,045.4,0.260,770.1,01.15,0.508
2015-11-16 01:29:00,1732E-3,5C000400,-0724,0829,12281,025.9,045.4,0.260,770.1,01.15,0.508
2015-11-16 01:30:00,1784E-3,5C000400,-0724,0829,12365,025.9,045.3,0.260,770.1,01.15,0.508
2015-11-16 01:31:00,1801E-3,5C000400,-0724,0829,12246,025.9,045.4,0.260,770.1,01.15,0.508
2015-11-16 01:32:00,1749E-3,5C000400,-0724,0829,12273,025.9,045.4,0.260,770.1,01.15,0.508
2015-11-16 01:33:00,1782E-3,5C000400,-0724,0829,12155,025.9,045.4,0.260,770.1,01.15,0.508
2015-11-16 01:34:00,1747E-3,5C000400,-0724,0829,12385,025.9,045.4,0.260,770.1,01.15,0.508
2015-11-16 01:35:00,1746E-3,5C000400,-0724,0829,12185,025.9,045.3,0.260,770.1,01.15,0.508
2015-11-16 01:36:00,1909E-3,5C000400,-0724,0828,12304,025.9,045.4,0.260,770.0,01.15,0.508
2015-11-16 01:37:00,1793E-3,5C000400,-0724,0829,12129,025.9,045.4,0.260,770.0,01.15,0.508
2015-11-16 01:38:00,1815E-3,5C000400,-0724,0828,12167,025.9,045.4,0.260,770.0,01.15,0.508
2015-11-16 01:39:00,1678E-3,5C000400,-0724,0828,11972,025.9,045.4,0.260,770.0,01.15,0.508
2015-11-16 01:40:00,1735E-3,5C000400,-0724,0828,12254,025.9,045.4,0.260,770.0,01.15,0.508
2015-11-16 01:41:00,1802E-3,5C000400,-0724,0828,12232,025.9,045.4,0.260,769.9,01.15,0.508
2015-11-16 01:42:00,1849E-3,5C000400,-0724,0828,12137,025.9,045.4,0.260,769.9,01.15,0.508
2015-11-16 01:43:00,1849E-3,5C000400,-0724,0828,12124,025.9,045.4,0.260,770.0,01.15,0.508
2015-11-16 01:44:00,1950E-3,5C000400,-0724,0829,12396,025.9,045.4,0.260,769.9,01.15,0.508
2015-11-16 01:45:00,1930E-3,5C000400,-0724,0829,12243,025.9,045.4,0.260,770.0,01.15,0.508
2015-11-16 01:46:00,1893E-3,5C000400,-0724,0828,12150,025.9,045.4,0.260,769.9,01.15,0.508
2015-11-16 01:47:00,1634E-3,5C000400,-0724,0829,12175,025.9,045.4,0.260,769.9,01.15,0.508
2015-11-16 01:48:00,1828E-3,5C000400,-0724,0829,12318,025.9,045.4,0.260,769.9,01.15,0.508
2015-11-16 01:49:00,1725E-3,5C000400,-0724,0829,12203,026.0,045.4,0.260,769.9,01.15,0.508
2015-11-16 01:50:00,1830E-3,5C000400,-0724,0829,12329,025.9,045.4,0.260,769.9,01.15,0.508
2015-11-16 01:51:00,1701E-3,5C000400,-0724,0828,12194,026.0,045.4,0.260,770.0,01.15,0.508
2015-11-16 01:52:00,1708E-3,5C000400,-0724,0829,12247,025.9,045.4,0.260,769.9,01.15,0.508
2015-11-16 01:53:00,1789E-3,5C000400,-0724,0830,12143,025.9,045.4,0.260,769.9,01.15,0.508
2015-11-16 01:54:00,1756E-3,5C000400,-0724,0828,12083,026.0,045.4,0.260,769.8,01.15,0.508
2015-11-16 01:55:00,1764E-3,5C000400,-0724,0829,12201,025.9,045.4,0.260,769.9,01.15,0.508
2015-11-16 01:56:00,1769E-3,5C000400,-0724,0829,12316,025.9,045.4,0.260,769.9,01.15,0.508
2015-11-16 01:57:00,1783E-3,5C000400,-0724,0830,12386,026.0,045.4,0.260,770.0,01.15,0.508
2015-11-16 01:58:00,1647E-3,5C000400,-0724,0828,12225,026.0,045.4,0.260,770.0,01.15,0.508
2015-11-16 01:59:00,1819E-3,5C000400,-0724,0829,12205,026.0,045.4,0.260,770.0,01.15,0.508
2015-11-16 02:00:00,1852E-3,5C000400,-0724,0829,12270,026.0,045.4,0.260,769.9,01.15,0.508
2015-11-16 02:01:00,1768E-3,5C000400,-0724,0829,12278,026.0,045.3,0.260,769.9,01.15,0.508
2015-11-16 02:02:00,1860E-3,5C000400,-0724,0830,12224,026.0,045.3,0.260,769.9,01.15,0.508
2015-11-16 02:03:00,1722E-3,5C000400,-0724,0829,12159,026.0,045.4,0.260,770.0,01.15,0.508
2015-11-16 02:04:00,1758E-3,5C000400,-0724,0829,12287,026.0,045.4,0.260,769.9,01.15,0.508
2015-11-16 02:05:00,1790E-3,5C000400,-0724,0829,12202,026.0,045.4,0.260,769.9,01.15,0.508
2015-11-16 02:06:00,1914E-3,5C000400,-0724,0828,12116,026.0,045.4,0.260,769.9,01.15,0.508
2015-11-16 02:07:00,1794E-3,5C000400,-0724,0829,12188,026.0,045.4,0.260,769.9,01.15,0.508
2015-11-16 02:08:00,1831E-3,5C000400,-0724,0829,12187,026.0,045.4,0.260,769.9,01.15,0.508
2015-11-16 02:09:00,1887E-3,5C000400,-0724,0829,12186,026.0,045.4,0.260,769.9,01.15,0.508
2015-11-16 02:10:00,1837E-3,5C000400,-0724,0829,12358,026.0,045.4,0.260,770.0,01.15,0.508
2015-11-16 02:11:00,1824E-3,5C000400,-0724,0828,12262,026.0,045.4,0.260,769.9,01.15,0.508
2015-11-16 02:12:00,1852E-3,5C000400,-0724,0829,12320,026.0,045.4,0.260,769.8,01.15,0.508
2015-11-16 02:13:00,1745E-3,5C000400,-0724,0829,12219,026.0,045.4,0.260,769.8,01.15,0.508
2015-11-16 02:14:00,1880E-3,5C000400,-0724,0829,12178,026.0,045.4,0.260,769.8,01.15,0.508
2015-11-16 02:15:00,1976E-3,5C000400,-0724,0829,12266,026.0,045.4,0.260,769.9,01.15,0.508
2015-11-16 02:16:00,1907E-3,5C000400,-0724,0829,12222,026.0,045.4,0.260,769.9,01.15,0.508
2015-11-16 02:17:00,1895E-3,5C000400,-0724,0829,12099,026.0,045.4,0.260,769.9,01.15,0.508
2015-11-16 02:18:00,1715E-3,5C000400,-0724,0829,12230,026.0,045.4,0.260,769.9,01.15,0.508
2015-11-16 02:19:00,1809E-3,5C000400,-0724,0828,12050,026.0,045.4,0.260,769.7,01.15,0.508
2015-11-16 02:20:00,1779E-3,5C000400,-0724,0829,12189,026.0,045.4,0.260,769.9,01.15,0.508
2015-11-16 02:21:00,1756E-3,5C000400,-0724,0829,12169,026.0,045.4,0.260,769.8,01.15,0.508
2015-11-16 02:22:00,1907E-3,5C000400,-0724,0828,12097,026.0,045.4,0.260,769.9,01.15,0.508
2015-11-16 02:23:00,1728E-3,5C000400,-0724,0829,12175,026.0,045.4,0.260,769.8,01.15,0.508
2015-11-16 02:24:00,1790E-3,5C000400,-0724,0830,12200,026.0,045.4,0.260,769.8,01.15,0.508
2015-11-16 02:25:00,1923E-3,5C000400,-0724,0829,12105,026.0,045.4,0.260,769.7,01.15,0.508
2015-11-16 02:26:00,1857E-3,5C000400,-0724,0826,12168,026.0,045.4,0.260,769.8,01.15,0.508
2015-11-16 02:27:00,1896E-3,5C000400,-0724,0828,12383,026.0,045.3,0.260,769.8,01.15,0.508
2015-11-16 02:28:00,1767E-3,5C000400,-0724,0829,12094,026.0,045.4,0.260,769.9,01.15,0.508
2015-11-16 02:29:00,1789E-3,5C000400,-0724,0829,12149,026.0,045.4,0.260,769.9,01.15,0.508
2015-11-16 02:30:00,1802E-3,5C000400,-0724,0829,12089,026.0,045.4,0.260,769.8,01.15,0.508
2015-11-16 02:31:00,1738E-3,5C000400,-0724,0829,12214,026.0,045.4,0.260,769.9,01.15,0.508
2015-11-16 02:32:00,1728E-3,5C000400,-0724,0827,12102,026.0,045.4,0.260,770.0,01.15,0.508
2015-11-16 02:33:00,1618E-3,5C000400,-0724,0828,12236,026.0,045.4,0.260,769.9,01.15,0.508
2015-11-16 02:34:00,1837E-3,5C000400,-0724,0828,12166,026.0,045.4,0.260,769.8,01.15,0.508
2015-11-16 02:35:00,1811E-3,5C000400,-0724,0828,12181,026.0,045.4,0.260,769.8,01.15,0.508
2015-11-16 02:36:00,1749E-3,5C000400,-0724,0828,12235,026.0,045.4,0.260,769.9,01.15,0.508
2015-11-16 02:37:00,1808E-3,5C000400,-0724,0828,12191,026.0,045.4,0.260,769.9,01.15,0.508
2015-11-16 02:38:00,1889E-3,5C000400,-0724,0829,12311,026.0,045.4,0.260,770.0,01.15,0.508
2015-11-16 02:39:00,1824E-3,5C000400,-0724,0828,12229,026.0,045.4,0.260,769.9,01.15,0.508
2015-11-16 02:40:00,1819E-3,5C000400,-0724,0829,12218,026.0,045.4,0.260,770.0,01.15,0.508
2015-11-16 02:41:00,1894E-3,5C000400,-0724,0829,12249,026.0,045.4,0.260,770.0,01.15,0.508
2015-11-16 02:42:00,1715E-3,5C000400,-0724,0829,12424,026.0,045.4,0.260,770.0,01.15,0.508
2015-11-16 02:43:00,1864E-3,5C000400,-0724,0829,12020,026.0,045.4,0.260,770.0,01.15,0.508
2015-11-16 02:44:00,1815E-3,5C000400,-0724,0828,12143,026.0,045.4,0.260,770.0,01.15,0.508
2015-11-16 02:45:00,1703E-3,5C000400,-0724,0829,12155,026.0,045.4,0.260,770.0,01.15,0.508
2015-11-16 02:46:00,1786E-3,5C000400,-0724,0829,12159,026.0,045.4,0.260,770.0,01.15,0.508
2015-11-16 02:47:00,1799E-3,5C000400,-0724,0829,12084,026.0,045.4,0.260,770.0,01.15,0.508
2015-11-16 02:48:00,1755E-3,5C000400,-0724,0829,12255,026.0,045.4,0.260,769.9,01.15,0.508
2015-11-16 02:49:00,1900E-3,5C000400,-0724,0828,12284,026.0,045.4,0.260,769.9,01.15,0.508
2015-11-16 02:50:00,1783E-3,5C000400,-0724,0828,12179,026.0,045.4,0.260,770.0,01.15,0.508
2015-11-16 02:51:00,1865E-3,5C000400,-0724,0829,12209,026.0,045.4,0.260,769.9,01.15,0.508
2015-11-16 02:52:00,1707E-3,5C000400,-0724,0828,12170,026.0,045.4,0.260,770.1,01.15,0.508
2015-11-16 02:53:00,1825E-3,5C000400,-0724,0829,12168,026.1,045.4,0.260,770.1,01.15,0.508
2015-11-16 02:54:00,1724E-3,5C000400,-0724,0829,12192,026.0,045.4,0.260,770.0,01.15,0.508
2015-11-16 02:55:00,1717E-3,5C000400,-0724,0829,12334,026.0,045.4,0.260,770.1,01.15,0.508
2015-11-16 02:56:00,1748E-3,5C000400,-0724,0829,12141,026.0,045.4,0.260,770.1,01.15,0.508
2015-11-16 02:57:00,1760E-3,5C000400,-0724,0829,12290,026.0,045.4,0.260,770.1,01.15,0.508
2015-11-16 02:58:00,1866E-3,5C000400,-0724,0829,12186,026.0,045.4,0.260,770.0,01.15,0.508
2015-11-16 02:59:00,1753E-3,5C000400,-0724,0829,12310,026.0,045.4,0.260,770.1,01.15,0.508
2015-11-16 03:00:00,1911E-3,5C000400,-0724,0829,12186,026.0,045.4,0.260,770.0,01.15,0.508
2015-11-16 03:01:00,1816E-3,5C000400,-0724,0829,12233,026.1,045.4,0.260,770.1,01.15,0.508
2015-11-16 03:02:00,1842E-3,5C000400,-0724,0829,12179,026.1,045.4,0.260,770.1,01.15,0.508
2015-11-16 03:03:00,1714E-3,5C000400,-0724,0829,12250,026.0,045.3,0.260,770.1,01.15,0.508
2015-11-16 03:04:00,1640E-3,5C000400,-0724,0828,12318,026.0,045.4,0.260,770.1,01.15,0.508
2015-11-16 03:05:00,1871E-3,5C000400,-0724,0829,12071,026.1,045.4,0.260,770.2,01.15,0.508
2015-11-16 03:06:00,1883E-3,5C000400,-0724,0830,12175,026.1,045.4,0.260,770.2,01.15,0.508
2015-11-16 03:07:00,1706E-3,5C000400,-0724,0829,12142,026.1,045.4,0.260,770.2,01.15,0.508
2015-11-16 03:08:00,1804E-3,5C000400,-0724,0828,12304,026.0,045.4,0.260,770.3,01.15,0.508
2015-11-16 03:09:00,1893E-3,5C000400,-0724,0829,12271,026.1,045.4,0.260,770.3,01.15,0.508
2015-11-16 03:10:00,1833E-3,5C000400,-0724,0829,12192,026.1,045.4,0.260,770.4,01.15,0.508
2015-11-16 03:11:00,1843E-3,5C000400,-0724,0829,12206,026.1,045.4,0.260,770.4,01.15,0.508
2015-11-16 03:12:00,1863E-3,5C000400,-0724,0828,12182,026.1,045.4,0.260,770.3,01.15,0.508
2015-11-16 03:13:00,1769E-3,5C000400,-0724,0830,12298,026.1,045.4,0.260,770.2,01.15,0.508
2015-11-16 03:14:00,1840E-3,5C000400,-0724,0828,12260,026.1,045.4,0.260,770.3,01.15,0.508
2015-11-16 03:15:00,1695E-3,5C000400,-0724,0829,12185,026.1,045.4,0.259,770.2,01.15,0.508
2015-11-16 03:16:00,1876E-3,5C000400,-0724,0829,12296,026.1,045.4,0.260,770.2,01.15,0.508
2015-11-16 03:17:00,1837E-3,5C000400,-0724,0829,12171,026.1,045.4,0.260,770.3,01.15,0.508
2015-11-16 03:18:00,1812E-3,5C000400,-0724,0829,12077,026.1,045.4,0.260,770.3,01.15,0.508
2015-11-16 03:19:00,1832E-3,5C000400,-0724,0829,12198,026.1,045.4,0.260,770.2,01.15,0.508
2015-11-16 03:20:00,1817E-3,5C000400,-0724,0828,12295,026.1,045.4,0.259,770.1,01.15,0.508
2015-11-16 03:21:00,1813E-3,5C000400,-0724,0829,12338,026.1,045.4,0.260,770.2,01.15,0.508
2015-11-16 03:22:00,1828E-3,5C000400,-0724,0830,12271,026.1,045.4,0.260,770.2,01.15,0.508
2015-11-16 03:23:00,1800E-3,5C000400,-0724,0829,12122,026.1,045.4,0.260,770.2,01.15,0.508
2015-11-16 03:24:00,1739E-3,5C000400,-0724,0829,12122,026.1,045.4,0.260,770.1,01.15,0.508
2015-11-16 03:25:00,1888E-3,5C000400,-0724,0829,12273,026.1,045.4,0.259,770.2,01.15,0.508
2015-11-16 03:26:00,1786E-3,5C000400,-0724,0829,12224,026.1,045.4,0.260,770.1,01.15,0.508
2015-11-16 03:27:00,1710E-3,5C000400,-0724,0829,12158,026.1,045.4,0.260,770.1,01.15,0.508
2015-11-16 03:28:00,1753E-3,5C000400,-0724,0829,12312,026.1,045.4,0.260,770.0,01.15,0.508
2015-11-16 03:29:00,1764E-3,5C000400,-0724,0829,12135,026.1,045.4,0.260,770.1,01.15,0.508
2015-11-16 03:30:00,1654E-3,5C000400,-0724,0829,12273,026.1,045.4,0.260,770.0,01.15,0.508
2015-11-16 03:31:00,1768E-3,5C000400,-0724,0828,12301,026.1,045.3,0.260,770.1,01.15,0.508
2015-11-16 03:32:00,1923E-3,5C000400,-0724,0829,12282,026.1,045.4,0.260,770.1,01.15,0.508
2015-11-16 03:33:00,1665E-3,5C000400,-0724,0829,12213,026.1,045.4,0.260,770.1,01.15,0.508
2015-11-16 03:34:00,1788E-3,5C000400,-0724,0829,12262,026.1,045.4,0.259,770.1,01.15,0.508
2015-11-16 03:35:00,1760E-3,5C000400,-0724,0829,12165,026.1,045.4,0.260,770.0,01.15,0.508
2015-11-16 03:36:00,1775E-3,5C000400,-0724,0829,12263,026.1,045.4,0.260,770.0,01.15,0.508
2015-11-16 03:37:00,1693E-3,5C000400,-0724,0829,12258,026.1,045.4,0.260,770.2,01.15,0.508
2015-11-16 03:38:00,1828E-3,5C000400,-0724,0830,12314,026.1,045.4,0.260,770.1,01.15,0.508
2015-11-16 03:39:00,1886E-3,5C000400,-0724,0829,12034,026.0,045.4,0.260,770.0,01.15,0.508
"read_dt","SO2 (ppb)","flags","PMT voltage (V)","lamp voltage (V)","lamp intensity (Hz)","internal temp (C)","react chamber temp (C)","sample flow (l/min)","pres (mmHg)","SO2 bkg (ppb)","SO2 coefficient"
2015-11-16 04:46:00,1222E-3,5C000404,-0724,0778,10696,021.3,030.6,0.267,771.6,01.15,0.508
2015-11-16 04:47:00,2104E-3,5C000404,-0724,0825,12197,021.0,030.8,0.267,771.3,01.15,0.508
2015-11-16 04:48:00,2164E-3,5C000404,-0724,0825,12207,020.8,031.5,0.267,771.5,01.15,0.508
2015-11-16 04:49:00,2158E-3,5C000404,-0724,0825,12219,020.7,032.4,0.267,771.6,01.15,0.508
2015-11-16 04:50:00,1982E-3,5C000404,-0724,0826,12123,020.6,033.2,0.267,771.7,01.15,0.508
2015-11-16 04:51:00,2236E-3,5C000404,-0724,0826,12232,020.6,034.1,0.267,771.7,01.15,0.508
2015-11-16 04:52:00,2139E-3,5C000404,-0724,0827,12203,020.5,035.0,0.268,771.6,01.15,0.508
2015-11-16 04:53:00,1985E-3,5C000404,-0724,0826,12253,020.5,035.8,0.268,771.6,01.15,0.508
2015-11-16 04:54:00,1982E-3,5C000404,-0724,0827,12295,020.4,036.6,0.269,771.6,01.15,0.508
2015-11-16 04:55:00,2091E-3,5C000404,-0724,0827,12220,020.4,037.3,0.269,771.6,01.15,0.508
2015-11-16 04:56:00,2047E-3,5C000404,-0724,0828,12289,020.4,038.0,0.268,771.2,01.15,0.508
2015-11-16 04:57:00,2086E-3,5C000404,-0724,0828,12298,020.4,038.7,0.269,771.3,01.15,0.508
2015-11-16 04:58:00,1935E-3,5C000404,-0724,0827,12237,020.4,039.4,0.269,771.3,01.15,0.508
2015-11-16 04:59:00,2047E-3,5C000404,-0724,0828,12152,020.4,040.0,0.269,771.2,01.15,0.508
2015-11-16 05:00:00,2025E-3,5C000404,-0724,0828,12305,020.4,040.6,0.270,771.3,01.15,0.508
2015-11-16 05:01:00,2024E-3,5C000404,-0724,0829,12297,020.4,041.1,0.270,771.3,01.15,0.508
2015-11-16 05:02:00,1946E-3,5C000404,-0724,0829,12033,020.5,041.7,0.270,771.2,01.15,0.508
2015-11-16 05:03:00,1967E-3,5C000404,-0724,0828,12242,020.5,042.2,0.270,771.3,01.15,0.508
2015-11-16 05:04:00,1983E-3,5C000404,-0724,0828,12215,020.5,042.7,0.270,771.4,01.15,0.508
2015-11-16 05:05:00,1923E-3,5C000400,-0724,0828,12149,020.5,043.2,0.269,771.2,01.15,0.508
2015-11-16 05:06:00,1876E-3,5C000400,-0724,0828,12187,020.6,043.6,0.269,771.2,01.15,0.508
2015-11-16 05:07:00,1827E-3,5C000400,-0724,0829,12097,020.6,044.1,0.270,771.3,01.15,0.508
2015-11-16 05:08:00,1958E-3,5C000400,-0724,0829,12273,020.7,044.5,0.270,771.2,01.15,0.508
2015-11-16 05:09:00,1842E-3,5C000400,-0724,0830,12300,020.7,044.9,0.270,771.3,01.15,0.508
2015-11-16 05:10:00,1831E-3,5C000400,-0724,0829,12256,020.7,045.3,0.270,771.3,01.15,0.508
2015-11-16 05:11:00,1969E-3,5C000400,-0724,0828,12224,020.8,045.4,0.269,771.3,01.15,0.508
2015-11-16 05:12:00,1815E-3,5C000400,-0724,0830,12283,020.9,045.4,0.270,771.4,01.15,0.508
2015-11-16 05:13:00,1770E-3,5C000400,-0724,0830,11939,020.9,045.3,0.270,771.4,01.15,0.508
2015-11-16 05:14:00,1882E-3,5C000400,-0724,0829,12219,020.9,045.3,0.269,771.3,01.15,0.508
2015-11-16 05:15:00,1888E-3,5C000400,-0724,0830,12229,021.0,045.3,0.269,771.4,01.15,0.508
2015-11-16 05:16:00,1749E-3,5C000400,-0724,0830,12131,021.0,045.3,0.269,771.4,01.15,0.508
2015-11-16 05:17:00,1831E-3,5C000400,-0724,0829,12259,021.1,045.3,0.269,771.3,01.15,0.508
2015-11-16 05:18:00,1799E-3,5C000400,-0724,0830,12208,021.1,045.3,0.269,771.3,01.15,0.508
2015-11-16 05:19:00,1812E-3,5C000400,-0724,0829,12228,021.2,045.3,0.269,771.3,01.15,0.508
2015-11-16 05:20:00,1867E-3,5C000400,-0724,0830,12334,021.3,045.3,0.269,771.3,01.15,0.508
2015-11-16 05:21:00,1731E-3,5C000400,-0724,0829,12198,021.3,045.3,0.269,771.4,01.15,0.508
2015-11-16 05:22:00,1767E-3,5C000400,-0724,0830,12327,021.3,045.3,0.269,771.4,01.15,0.508
2015-11-16 05:23:00,1803E-3,5C000400,-0724,0829,12212,021.4,045.3,0.269,771.3,01.15,0.508
2015-11-16 05:24:00,1769E-3,5C000400,-0724,0829,12199,021.5,045.3,0.269,771.3,01.15,0.508